Theta_e
348 347 345 347 345 347 345 344 346 347 346 346 345 342 340 333 332 334 337 338 340 342 343 341 341 342 342 339 340 336 335 336 337 335 338 340 340 338 333 322 328 333 334
349 346 346 344 344 345 344 344 344 346 346 345 344 341 341 337 335 339 341 343 342 343 343 343 343 342 340 340 339 333 333 335 337 335 335 335 336 335 329 331 333 333 333
348 346 346 342 346 344 343 343 343 343 344 345 343 342 340 337 336 338 339 342 343 343 343 342 340 341 338 337 334 333 335 337 338 338 335 333 329 333 333 334 334 333 333
348 347 346 342 343 344 342 343 343 343 343 343 343 343 341 338 338 339 339 340 340 342 341 339 336 335 336 336 333 334 337 337 336 337 337 333 325 333 334 334 334 333 332
348 348 348 343 342 343 342 342 342 342 343 343 342 342 341 338 338 338 340 338 337 337 338 336 333 328 329 330 330 332 334 334 333 332 335 330 323 335 335 332 332 333 332
348 348 348 346 341 339 341 342 342 342 342 342 341 341 340 339 338 338 339 338 337 338 336 335 333 325 327 326 328 331 333 333 331 329 330 331 326 333 333 331 332 332 332
347 347 346 346 343 341 339 339 341 341 342 343 341 340 341 341 341 340 340 339 338 336 336 334 330 323 323 322 323 327 331 330 329 329 329 330 322 332 333 329 330 330 331
345 347 346 345 344 341 341 340 340 340 341 341 340 339 340 340 341 339 338 340 340 336 334 332 330 325 326 325 323 318 323 327 327 330 329 332 325 333 332 327 327 327 327
340 344 346 346 343 341 342 341 341 341 341 342 341 340 339 340 340 339 339 339 341 337 334 332 329 326 327 327 325 321 316 325 327 329 331 331 323 331 328 325 325 326 325
325 336 342 344 345 342 341 341 341 341 340 340 340 340 339 339 339 338 337 339 340 337 334 332 330 326 326 326 325 322 317 326 328 328 328 331 330 329 327 325 325 325 325
316 318 322 337 341 343 343 343 341 340 339 339 339 338 338 337 338 338 337 337 339 338 335 332 332 327 326 326 325 324 320 324 327 328 328 329 328 324 325 325 325 325 326
310 311 315 321 335 339 341 341 342 341 338 337 338 338 337 336 335 337 338 337 339 338 337 332 332 330 326 325 325 325 323 323 328 328 327 328 328 326 324 326 326 326 326
310 311 311 311 314 330 337 339 340 341 339 336 333 334 335 335 335 338 341 338 339 338 337 334 331 331 328 325 326 330 327 327 330 330 329 329 329 328 324 326 328 327 327
309 310 310 310 311 314 324 335 338 340 341 339 338 335 336 338 339 339 340 339 338 339 338 335 331 328 328 326 325 331 330 327 330 329 329 328 329 327 325 324 328 331 331
310 311 311 311 311 310 312 324 335 338 339 340 340 339 338 337 339 339 339 340 339 339 339 338 335 330 326 324 324 329 331 330 329 329 329 328 327 326 325 324 325 327 332
310 311 311 312 312 311 310 312 327 336 338 338 337 338 340 338 338 339 339 338 339 339 338 338 336 332 327 326 325 328 329 329 328 328 328 328 327 326 325 325 325 326 328
311 311 311 311 311 312 311 311 314 328 335 337 338 338 339 338 337 338 339 339 338 337 337 338 336 333 329 327 327 327 329 330 328 327 326 325 326 325 325 326 326 325 326
312 312 312 312 311 311 312 312 311 316 328 334 336 336 338 337 338 339 338 338 338 338 337 338 338 333 332 330 328 327 330 330 327 326 325 324 324 323 324 326 327 327 325
314 314 314 313 313 312 311 312 312 311 318 328 333 335 336 336 336 338 338 338 337 337 336 336 337 337 335 335 332 330 329 329 328 327 326 325 323 324 324 326 326 327 328
315 315 315 315 315 313 312 312 312 312 311 320 329 333 335 335 335 337 337 336 336 337 337 336 336 336 335 335 334 333 332 330 328 328 327 326 324 324 324 325 326 326 327
311 313 313 313 315 314 313 312 313 313 312 312 320 326 332 334 333 335 335 335 337 337 336 336 335 334 335 335 335 334 334 334 333 331 329 327 326 326 324 325 325 325 325
309 309 309 312 313 314 313 312 312 313 312 312 318 319 319 331 333 332 335 336 336 336 335 335 335 335 334 333 334 332 330 330 332 332 331 330 328 327 326 325 324 326 326
307 307 307 309 311 312 314 313 313 312 312 317 322 324 322 324 331 331 332 332 333 332 332 333 334 333 333 332 333 332 329 327 323 328 330 330 329 328 328 327 326 326 328
307 308 308 308 309 310 314 312 312 312 312 314 318 323 324 322 326 330 330 332 332 331 331 332 332 332 331 331 331 333 332 327 325 325 325 326 326 327 327 326 327 329 328
307 309 311 311 309 310 315 313 312 311 311 311 314 318 326 328 325 328 328 330 331 331 330 331 331 330 331 331 331 330 330 329 328 326 328 325 326 326 326 327 327 326 325
307 309 311 314 313 313 317 314 313 312 311 311 313 317 323 324 326 327 327 328 329 329 330 330 331 330 329 329 331 330 329 328 328 328 327 325 322 323 323 323 323 322 321
Wind_Speed
7 6 10 12 11 10 10 9 10 9 9 10 10 9 9 10 11 13 13 11 10 10 9 12 13 14 14 14 13 12 14 14 15 15 16 17 18 17 14 14 16 16 15
4 4 9 14 12 11 10 9 9 9 9 8 10 7 7 8 8 10 12 9 7 9 11 14 13 13 12 14 12 13 14 15 15 13 12 12 14 13 13 14 15 15 14
4 8 10 11 12 11 9 9 10 10 9 8 9 7 6 5 7 8 9 10 11 12 11 12 12 11 11 11 12 13 14 13 13 12 12 12 11 13 13 14 13 13 12
3 7 10 11 12 11 10 9 10 10 9 8 8 8 5 5 6 7 7 8 8 10 10 10 9 10 11 11 12 14 13 11 7 4 8 10 10 12 11 12 11 11 11
2 8 9 10 11 11 10 10 10 10 9 7 7 7 3 4 7 8 7 7 8 8 8 8 6 9 11 10 11 12 12 10 12 12 10 7 9 10 9 9 10 10 10
7 5 9 8 9 10 10 9 9 9 8 7 7 6 4 1 6 8 10 10 8 9 8 7 5 9 10 10 11 13 11 10 11 9 7 6 4 9 8 8 9 9 9
8 6 7 8 8 9 9 10 10 9 9 8 6 6 6 4 6 7 10 11 10 10 9 7 7 7 8 8 9 10 11 8 9 7 4 1 4 7 7 7 7 7 7
6 7 3 5 8 10 10 9 9 9 9 9 8 8 8 6 7 7 10 11 11 10 9 9 9 7 8 8 7 7 10 8 7 8 3 1 2 6 5 5 5 5 5
9 5 6 2 5 10 11 12 12 11 11 11 11 10 9 9 9 10 10 12 15 13 11 9 10 9 9 9 8 7 10 10 6 7 5 2 3 5 4 4 3 3 3
7 4 1 4 4 6 9 11 13 14 14 14 13 12 11 10 11 11 11 12 16 15 12 11 11 11 9 9 8 7 9 11 8 6 6 4 2 4 4 3 2 2 1
4 5 5 3 3 4 6 10 13 14 15 16 16 15 14 13 13 13 14 15 19 17 14 13 13 13 11 10 9 8 9 13 10 9 8 8 5 5 6 5 5 4 3
9 9 9 8 7 7 10 11 9 17 16 17 18 18 17 16 15 15 15 16 20 20 16 15 16 15 14 12 10 10 10 13 11 12 14 10 8 7 8 8 8 7 6
12 12 13 13 11 12 13 12 10 12 17 18 20 19 18 18 17 18 18 18 20 21 19 17 17 18 18 16 14 11 10 14 11 11 13 11 10 9 10 11 10 9 9
16 16 16 17 17 16 14 14 17 19 14 21 16 17 18 18 17 21 24 22 20 23 22 20 20 20 20 19 17 15 13 12 13 11 14 14 13 11 12 12 12 12 12
16 16 16 16 17 18 19 17 17 20 19 17 19 20 23 23 21 22 27 28 25 24 24 23 21 21 22 21 21 20 19 17 17 15 15 15 14 14 13 14 15 14 14
18 19 18 15 16 17 19 21 19 19 21 21 24 22 24 24 21 26 28 27 25 24 23 24 23 21 21 20 21 22 21 19 17 18 18 20 19 17 16 14 17 17 16
20 21 22 21 21 19 20 22 23 22 24 23 22 23 24 23 24 22 27 27 24 23 23 23 24 22 22 22 24 23 24 23 23 21 20 18 18 19 19 18 16 19 19
9 11 15 20 21 21 23 22 24 25 25 27 21 25 27 25 26 25 26 25 23 23 25 27 24 24 22 20 21 25 23 22 23 24 22 22 23 23 22 21 20 19 21
16 20 22 24 22 24 26 27 25 26 27 27 26 23 27 27 28 23 24 24 23 24 24 25 29 27 27 24 18 16 20 22 22 22 23 23 23 24 24 23 23 21 21
17 17 19 24 27 27 26 29 28 27 29 29 30 28 22 28 27 28 27 26 26 25 26 25 27 30 27 24 21 22 23 23 23 25 27 27 26 25 25 26 26 26 25
27 26 25 27 25 25 25 27 29 28 27 31 32 32 31 25 31 30 30 29 25 25 26 22 21 22 21 21 15 16 21 24 24 27 25 27 29 31 30 27 27 29 28
27 29 30 30 28 25 26 27 24 24 25 30 30 31 32 31 27 29 32 29 30 25 23 19 19 20 19 17 8 6 2 8 21 29 30 29 33 32 33 34 31 30 29
28 30 30 30 30 31 28 26 27 26 25 23 25 28 29 32 28 25 26 28 24 23 20 19 20 20 18 18 19 11 1 4 2 13 24 31 34 35 34 32 33 31 29
27 30 31 31 30 31 26 26 25 26 23 22 26 23 24 30 31 31 24 24 27 24 23 24 23 22 20 20 20 24 26 13 3 4 10 17 25 30 29 30 24 21 21
25 27 31 29 27 28 22 22 23 24 22 25 23 24 20 21 28 30 34 30 24 23 25 24 22 23 22 23 24 18 20 19 22 13 10 7 12 15 18 17 15 13 14
28 27 30 21 20 20 20 18 17 24 24 23 21 22 21 21 23 26 28 32 35 30 26 24 23 24 25 26 25 25 22 13 11 14 9 7 7 10 14 13 18 17 17
Wind_Direction
141 150 167 166 174 153 159 160 150 140 131 128 118 104 98 97 109 112 111 109 112 114 107 97 104 100 97 89 95 99 84 88 94 99 96 89 86 85 76 69 73 73 70
153 177 181 176 179 167 165 167 165 155 150 137 128 110 110 107 114 121 118 101 133 131 113 105 101 99 92 95 91 102 97 97 102 97 89 86 84 78 74 76 75 73 71
167 190 185 176 174 173 170 171 171 165 158 151 143 127 121 124 124 132 127 115 103 120 122 111 112 105 102 98 107 110 105 105 99 86 83 79 73 76 78 76 77 77 74
190 194 182 178 179 177 174 171 172 165 162 156 155 151 133 147 138 138 139 136 121 122 126 122 115 120 114 113 115 120 114 101 79 112 109 79 73 82 83 83 80 77 78
172 188 177 184 185 182 178 174 171 169 166 161 161 161 152 165 157 152 149 140 144 143 142 133 122 130 130 127 127 132 117 92 85 85 118 78 85 90 88 82 82 82 80
100 173 202 184 190 191 188 186 182 182 177 171 169 160 204 212 174 167 162 161 163 159 164 160 155 140 137 135 136 143 134 100 93 99 97 85 74 106 101 92 90 90 89
69 124 174 196 198 201 197 193 192 194 190 182 192 186 193 214 198 191 189 185 182 175 177 173 163 153 149 147 146 152 154 121 113 133 131 97 123 121 114 105 103 101 96
61 82 138 199 215 209 205 209 210 207 203 208 210 205 203 207 213 209 206 200 196 192 189 184 178 177 175 165 152 156 165 149 128 138 146 156 139 130 119 108 106 108 108
46 66 83 157 218 209 213 214 213 215 215 218 219 215 209 213 214 214 213 216 207 202 198 197 188 181 173 179 174 166 165 167 153 161 184 216 157 152 147 132 121 113 105
29 15 54 73 205 239 234 226 222 221 224 226 230 226 224 219 216 216 215 212 201 206 208 203 201 191 188 188 186 176 173 173 151 174 211 203 218 186 182 176 173 167 159
343 344 330 283 222 223 235 251 244 233 229 229 229 231 230 228 226 217 219 214 206 210 214 214 209 207 201 201 201 194 184 178 181 190 214 224 236 218 212 212 215 221 231
306 295 293 292 275 253 237 237 253 236 236 237 235 231 229 230 230 226 221 218 208 209 216 218 217 216 212 209 209 212 204 190 203 215 215 225 235 247 228 226 226 229 237
301 290 285 281 277 268 259 251 234 232 244 242 239 239 238 237 230 224 225 214 208 211 216 218 218 219 221 217 212 208 216 207 208 224 213 234 243 259 240 234 236 237 241
292 288 284 278 271 268 261 257 245 234 250 237 236 235 234 235 235 225 223 212 212 215 220 222 223 226 227 225 226 225 221 210 219 225 225 235 239 252 251 240 235 239 245
283 290 288 286 281 269 262 257 257 248 240 231 230 237 238 238 237 236 223 214 215 219 223 227 231 234 233 231 226 227 225 225 225 235 235 235 242 246 251 247 242 239 238
278 283 286 283 283 285 268 255 253 256 247 251 248 243 230 228 237 236 222 219 220 224 228 227 231 232 235 232 229 226 233 229 234 234 240 244 246 247 249 250 250 246 242
272 285 281 278 277 276 274 265 253 250 249 253 250 238 228 232 233 232 224 223 227 226 228 226 230 232 236 240 237 231 233 237 241 247 247 247 245 251 258 257 258 258 251
310 306 292 284 279 275 268 265 259 251 251 253 254 241 239 237 231 231 227 228 231 229 228 228 228 223 231 239 237 232 234 250 245 247 249 252 254 256 257 257 258 261 258
315 308 300 292 286 281 272 260 262 256 250 253 256 248 240 241 233 233 236 239 233 233 234 231 233 233 234 237 238 241 244 246 244 247 252 254 255 257 255 256 260 261 260
338 328 322 304 288 282 277 258 256 258 253 247 252 250 243 238 236 236 238 239 237 233 232 235 236 235 239 241 236 251 255 256 251 249 257 258 255 255 258 259 258 259 260
322 321 311 309 305 283 275 258 245 248 254 253 250 252 249 243 240 231 234 233 231 227 227 228 235 236 236 237 238 245 257 259 262 256 251 251 252 255 252 254 256 261 262
321 317 310 301 297 292 271 267 256 246 250 252 252 256 261 249 242 241 230 228 226 218 219 219 224 237 240 245 230 249 273 273 252 249 252 254 253 250 252 255 257 259 258
310 305 302 297 293 291 280 266 262 248 247 245 245 251 257 254 243 244 241 230 221 217 218 222 231 237 236 246 246 219 223 233 289 243 247 253 251 254 254 254 262 259 252
311 306 299 291 286 286 288 260 251 244 241 247 244 250 256 250 252 237 240 240 233 230 226 229 234 237 239 244 247 243 242 249 222 281 242 251 252 257 259 258 246 240 247
320 318 310 286 281 279 281 258 247 245 251 258 257 251 257 259 252 249 240 239 239 231 235 230 232 238 238 243 241 243 249 250 255 251 268 255 244 243 235 231 239 245 255
338 334 336 328 297 285 281 252 247 247 250 254 255 254 258 260 260 246 244 240 242 240 241 242 241 241 243 244 246 247 241 241 235 231 244 240 217 239 224 251 270 270 270